Regional Weather Roundup
Issued by NWS Bismarck, ND

Home | Current Version | Previous Version | Text Only | Print | Product List | Glossary On
Versions: 1 2 3 4 5 6 7 8 9 10 11 12 13 14 15 16 17 18 19 20 21 22 23 24 25 26 27 28 29 30 31 32 33 34 35 36 37 38 39 40 41 42 43 44 45 46 47 48 49 50
380
ASUS43 KBIS 311802
RWRBIS

NWR BROADCAST TEXT
NATIONAL WEATHER SERVICE BISMARCK ND
100 PM CDT TUE MAY 31 2016

NOTE: "FAIR" INDICATES FEW OR NO CLOUDS BELOW 12,000 FEET WITH NO
SIGNIFICANT WEATHER AND/OR OBSTRUCTIONS TO VISIBILITY.


CITY           SKY/WX    TMP DP  RH WIND       PRES   REMARKS
WILLISTON      LGT RAIN  53  49  86 N25G45    29.77R
MINOT          PTSUNNY   65  48  54 SW12G17   29.60F
MINOT AFB      SUNNY     64  51  63 S7        29.58S
BISMARCK       LGT RAIN  57  50  77 W18G30    29.69F
DICKINSON      LGT RAIN  50  47  89 NW28G38   29.68R
GARRISON         N/A     59  49  69 W13       29.63S
HETTINGER ARPT RAIN      51  49  92 W31G40    29.76F FOG
JAMESTOWN      CLOUDY    61  47  59 SW18G26   29.72F
CARRINGTON     MOCLDY    59  50  72 SW7G14    29.71S
HAZEN          CLOUDY    57  46  67 SW16G22   29.66S
MANDAN         MOCLDY    55  54  94 W18G33    29.69F
OAKES            N/A    N/A N/A N/A MISG        N/A
STANLEY        LGT RAIN  52  52 100 N28G40    29.66R
$$

CITY           SKY/WX    TMP DP  RH WIND       PRES   REMARKS
GRAND FORKS    PTSUNNY   66  56  70 SW18G24   29.69S
GRAND FORKS AF PTSUNNY   65  55  70 SW16      29.69S
DEVILS LAKE    LGT RAIN  57  52  83 SW10      29.68S
FARGO          MOSUNNY   68  47  46 SW21G26   29.75S
CAVALIER       CLOUDY    64  57  77 S9        29.66R
GRAFTON        CLOUDY    66  59  77 S13       29.69S
GWINNER        FAIR      64  48  55 SW17G26   29.79S
LANGDON        MOCLDY    61  59  94 S16       29.66R
$$

CITY           SKY/WX    TMP DP  RH WIND       PRES   REMARKS
ABERDEEN       PTSUNNY   64  47  53 W20G25    29.82S
MOBRIDGE       MOSUNNY   63  44  50 W23G35    29.77F
BUFFALO          N/A     52  48  86 W36G48    29.81R
RAPID CITY     CLOUDY    64  37  36 W20G29    29.96S
GLASGOW        CLOUDY    57  48  72 N22G31    30.00R
SIDNEY         LGT RAIN  54  50  86 N25G33    29.83R
WOLF POINT     CLOUDY    59  50  72 N23G31    29.94R
GLENDIVE       CLOUDY    52  48  87 N20G31    29.92R
MILES CITY     LGT RAIN  52  50  93 NW20      30.00R
BAKER          LGT RAIN  51  32  48 NW23G37   29.88R
$$

CITY           SKY/WX    TMP DP  RH WIND       PRES   REMARKS
BILLINGS       CLOUDY    58  38  47 N25G33    30.16S
GREAT FALLS    PTSUNNY   56  36  47 N8        30.24F
ESTEVAN        LGT RAIN  54  52  94 N25G36    29.77R
$$





USA.gov is the U.S. government's official web portal to all federal, state and local government web resources and services.